Wetterdaten: Sonntag, 09.06.2013
Datum Zeit Temp. Auen Feucht Auen Luftdruck Regen Richtung Richtung Windben
09.06.2013 00:00 14,7 C 87 % 1010,2 hPa 0,0 mm W 266 0,0 km/h (0 Bft)
09.06.2013 00:05 14,6 C 88 % 1010,0 hPa 0,0 mm W 266 0,0 km/h (0 Bft)
09.06.2013 00:10 14,6 C 88 % 1010,1 hPa 0,0 mm W 266 0,0 km/h (0 Bft)
09.06.2013 00:15 14,6 C 88 % 1010,1 hPa 0,0 mm W 269 0,0 km/h (0 Bft)
09.06.2013 00:20 14,6 C 89 % 1010,1 hPa 0,0 mm W 275 0,0 km/h (0 Bft)
09.06.2013 00:25 14,6 C 89 % 1010,0 hPa 0,0 mm W 275 0,0 km/h (0 Bft)
09.06.2013 00:30 14,6 C 89 % 1010,0 hPa 0,0 mm W 275 0,0 km/h (0 Bft)
09.06.2013 00:35 14,4 C 89 % 1010,0 hPa 0,0 mm W 275 0,0 km/h (0 Bft)
09.06.2013 00:40 14,4 C 89 % 1009,9 hPa 0,0 mm W 275 0,0 km/h (0 Bft)
09.06.2013 00:45 14,4 C 89 % 1009,9 hPa 0,0 mm W 275 0,0 km/h (0 Bft)
09.06.2013 00:50 14,3 C 89 % 1009,9 hPa 0,0 mm W 275 0,0 km/h (0 Bft)
09.06.2013 00:55 14,3 C 89 % 1009,8 hPa 0,0 mm W 275 0,0 km/h (0 Bft)
09.06.2013 01:00 14,2 C 89 % 1009,8 hPa 0,0 mm W 275 0,0 km/h (0 Bft)
09.06.2013 01:05 14,2 C 89 % 1009,8 hPa 0,0 mm W 270 0,0 km/h (0 Bft)
09.06.2013 01:10 14,1 C 89 % 1009,7 hPa 0,0 mm W 270 0,0 km/h (0 Bft)
09.06.2013 01:15 14,1 C 89 % 1009,7 hPa 0,0 mm W 270 0,0 km/h (0 Bft)
09.06.2013 01:20 14,1 C 90 % 1009,6 hPa 0,0 mm N 0 0,0 km/h (0 Bft)
09.06.2013 01:25 14,0 C 90 % 1009,5 hPa 0,0 mm N 0 0,0 km/h (0 Bft)
09.06.2013 01:30 13,9 C 90 % 1009,4 hPa 0,0 mm SW 215 0,0 km/h (0 Bft)
09.06.2013 01:35 13,9 C 90 % 1009,3 hPa 0,0 mm SW 215 0,0 km/h (0 Bft)
09.06.2013 01:40 13,9 C 90 % 1009,3 hPa 0,0 mm SW 215 0,0 km/h (0 Bft)
09.06.2013 01:45 13,8 C 90 % 1009,3 hPa 0,0 mm SW 215 0,0 km/h (0 Bft)
09.06.2013 01:50 13,8 C 90 % 1009,2 hPa 0,0 mm SW 215 0,0 km/h (0 Bft)
09.06.2013 01:55 13,7 C 90 % 1009,2 hPa 0,0 mm SW 215 0,0 km/h (0 Bft)
09.06.2013 02:00 13,7 C 90 % 1009,1 hPa 0,0 mm SW 215 0,0 km/h (0 Bft)
09.06.2013 02:05 13,6 C 90 % 1009,1 hPa 0,0 mm SW 215 0,0 km/h (0 Bft)
09.06.2013 02:10 13,6 C 90 % 1009,1 hPa 0,0 mm SW 222 0,0 km/h (0 Bft)
09.06.2013 02:15 13,5 C 91 % 1009,0 hPa 0,0 mm SW 222 0,0 km/h (0 Bft)
09.06.2013 02:20 13,5 C 91 % 1008,9 hPa 0,0 mm SW 222 0,0 km/h (0 Bft)
09.06.2013 02:25 13,4 C 91 % 1008,9 hPa 0,0 mm SW 222 0,0 km/h (0 Bft)
09.06.2013 02:30 13,4 C 91 % 1008,9 hPa 0,0 mm W 271 0,0 km/h (0 Bft)
09.06.2013 02:35 13,4 C 91 % 1008,9 hPa 0,0 mm W 271 0,0 km/h (0 Bft)
09.06.2013 02:40 13,4 C 91 % 1008,9 hPa 0,0 mm W 271 0,0 km/h (0 Bft)
09.06.2013 02:45 13,4 C 91 % 1008,9 hPa 0,0 mm W 271 0,0 km/h (0 Bft)
09.06.2013 02:50 13,3 C 91 % 1008,9 hPa 0,0 mm W 271 0,0 km/h (0 Bft)
09.06.2013 02:55 13,3 C 91 % 1008,9 hPa 0,0 mm W 271 0,0 km/h (0 Bft)
09.06.2013 03:00 13,2 C 91 % 1008,8 hPa 0,0 mm W 271 0,0 km/h (0 Bft)
09.06.2013 03:05 13,2 C 91 % 1008,7 hPa 0,0 mm W 271 0,0 km/h (0 Bft)
09.06.2013 03:10 13,1 C 91 % 1008,7 hPa 0,0 mm W 271 0,0 km/h (0 Bft)
09.06.2013 03:15 13,1 C 91 % 1008,8 hPa 0,0 mm W 271 0,0 km/h (0 Bft)
09.06.2013 03:20 13,0 C 91 % 1008,8 hPa 0,0 mm W 271 0,0 km/h (0 Bft)
09.06.2013 03:25 12,9 C 91 % 1008,7 hPa 0,0 mm W 271 0,0 km/h (0 Bft)
09.06.2013 03:30 12,8 C 90 % 1008,7 hPa 0,0 mm W 271 0,0 km/h (0 Bft)
09.06.2013 03:35 12,6 C 90 % 1008,8 hPa 0,0 mm W 271 0,0 km/h (0 Bft)
09.06.2013 03:40 12,6 C 90 % 1008,7 hPa 0,0 mm W 271 0,0 km/h (0 Bft)
09.06.2013 03:45 12,5 C 90 % 1008,7 hPa 0,0 mm W 271 0,0 km/h (0 Bft)
09.06.2013 03:50 12,4 C 90 % 1008,6 hPa 0,0 mm W 271 0,0 km/h (0 Bft)
09.06.2013 03:55 12,4 C 91 % 1008,6 hPa 0,0 mm W 271 0,0 km/h (0 Bft)
09.06.2013 04:00 12,3 C 91 % 1008,5 hPa 0,0 mm W 271 0,0 km/h (0 Bft)
09.06.2013 04:05 12,2 C 91 % 1008,5 hPa 0,0 mm W 271 0,0 km/h (0 Bft)
09.06.2013 04:10 12,2 C 91 % 1008,4 hPa 0,0 mm W 271 0,0 km/h (0 Bft)
09.06.2013 04:15 12,1 C 91 % 1008,5 hPa 0,0 mm W 271 0,0 km/h (0 Bft)
09.06.2013 04:20 12,1 C 91 % 1008,6 hPa 0,0 mm W 271 0,0 km/h (0 Bft)
09.06.2013 04:25 12,0 C 91 % 1008,5 hPa 0,0 mm W 271 0,0 km/h (0 Bft)
09.06.2013 04:30 11,9 C 91 % 1008,5 hPa 0,0 mm W 271 0,0 km/h (0 Bft)
09.06.2013 04:35 11,8 C 91 % 1008,5 hPa 0,0 mm W 271 0,0 km/h (0 Bft)
09.06.2013 04:40 11,8 C 91 % 1008,5 hPa 0,0 mm W 271 0,0 km/h (0 Bft)
09.06.2013 04:45 11,7 C 91 % 1008,5 hPa 0,0 mm W 271 0,0 km/h (0 Bft)
09.06.2013 04:50 11,7 C 91 % 1008,6 hPa 0,0 mm W 271 0,0 km/h (0 Bft)
09.06.2013 04:55 11,6 C 91 % 1008,5 hPa 0,0 mm W 271 0,0 km/h (0 Bft)
09.06.2013 05:00 11,5 C 91 % 1008,5 hPa 0,0 mm W 271 0,0 km/h (0 Bft)
09.06.2013 05:05 11,4 C 91 % 1008,5 hPa 0,0 mm W 271 0,0 km/h (0 Bft)
09.06.2013 05:10 11,4 C 91 % 1008,5 hPa 0,0 mm W 271 0,0 km/h (0 Bft)
09.06.2013 05:15 11,3 C 91 % 1008,5 hPa 0,0 mm W 271 0,0 km/h (0 Bft)
09.06.2013 05:20 11,3 C 91 % 1008,4 hPa 0,0 mm W 271 0,0 km/h (0 Bft)
09.06.2013 05:25 11,2 C 91 % 1008,4 hPa 0,0 mm W 271 0,0 km/h (0 Bft)
09.06.2013 05:30 11,1 C 92 % 1008,5 hPa 0,0 mm W 277 0,0 km/h (0 Bft)
09.06.2013 05:35 11,1 C 92 % 1008,5 hPa 0,0 mm W 277 0,0 km/h (0 Bft)
09.06.2013 05:40 11,1 C 92 % 1008,5 hPa 0,0 mm W 277 0,0 km/h (0 Bft)
09.06.2013 05:45 11,1 C 92 % 1008,5 hPa 0,0 mm W 277 0,0 km/h (0 Bft)
09.06.2013 05:50 11,1 C 92 % 1008,5 hPa 0,0 mm W 277 0,0 km/h (0 Bft)
09.06.2013 05:55 11,2 C 92 % 1008,4 hPa 0,0 mm W 277 0,0 km/h (0 Bft)
09.06.2013 06:00 11,7 C 93 % 1008,3 hPa 0,0 mm W 277 0,0 km/h (0 Bft)
09.06.2013 06:05 12,0 C 92 % 1008,2 hPa 0,0 mm W 277 0,0 km/h (0 Bft)
09.06.2013 06:10 12,2 C 92 % 1008,2 hPa 0,0 mm W 277 0,0 km/h (0 Bft)
09.06.2013 06:15 12,7 C 92 % 1008,2 hPa 0,0 mm W 277 0,0 km/h (0 Bft)
09.06.2013 06:20 13,2 C 91 % 1008,2 hPa 0,0 mm W 277 0,0 km/h (0 Bft)
09.06.2013 06:25 13,3 C 89 % 1008,1 hPa 0,0 mm W 277 0,0 km/h (0 Bft)
09.06.2013 06:30 13,1 C 89 % 1008,0 hPa 0,0 mm W 277 0,0 km/h (0 Bft)
09.06.2013 06:35 13,3 C 90 % 1008,0 hPa 0,0 mm W 277 0,0 km/h (0 Bft)
09.06.2013 06:40 14,0 C 90 % 1007,9 hPa 0,0 mm W 277 0,0 km/h (0 Bft)
09.06.2013 06:45 14,6 C 87 % 1007,9 hPa 0,0 mm W 277 0,0 km/h (0 Bft)
09.06.2013 06:50 14,8 C 85 % 1007,9 hPa 0,0 mm W 277 0,0 km/h (0 Bft)
09.06.2013 06:55 14,9 C 85 % 1007,9 hPa 0,0 mm W 275 1,6 km/h (1 Bft)
09.06.2013 07:00 15,3 C 86 % 1007,9 hPa 0,0 mm W 275 0,0 km/h (0 Bft)
09.06.2013 07:05 15,8 C 83 % 1007,9 hPa 0,0 mm W 276 0,0 km/h (0 Bft)
09.06.2013 07:10 15,9 C 84 % 1007,9 hPa 0,0 mm W 276 0,0 km/h (0 Bft)
09.06.2013 07:15 16,4 C 83 % 1007,9 hPa 0,0 mm W 276 0,0 km/h (0 Bft)
09.06.2013 07:20 16,6 C 80 % 1007,9 hPa 0,0 mm W 276 0,0 km/h (0 Bft)
09.06.2013 07:25 16,1 C 84 % 1007,9 hPa 0,0 mm W 276 0,0 km/h (0 Bft)
09.06.2013 07:30 16,3 C 83 % 1007,8 hPa 0,0 mm W 276 0,0 km/h (0 Bft)
09.06.2013 07:35 15,8 C 83 % 1007,8 hPa 0,0 mm W 276 0,0 km/h (0 Bft)
09.06.2013 07:40 16,2 C 83 % 1007,8 hPa 0,0 mm W 276 0,0 km/h (0 Bft)
09.06.2013 07:45 16,8 C 81 % 1007,8 hPa 0,0 mm N 5 0,0 km/h (0 Bft)
09.06.2013 07:50 16,8 C 82 % 1007,8 hPa 0,0 mm N 10 0,0 km/h (0 Bft)
09.06.2013 07:55 16,8 C 82 % 1007,7 hPa 0,0 mm O-NO 68 0,0 km/h (0 Bft)
09.06.2013 08:00 16,9 C 84 % 1007,7 hPa 0,0 mm O-NO 71 3,2 km/h (1 Bft)
09.06.2013 08:05 17,0 C 82 % 1007,7 hPa 0,0 mm O 99 4,8 km/h (1 Bft)
09.06.2013 08:10 17,3 C 82 % 1007,6 hPa 0,0 mm O 88 6,4 km/h (2 Bft)
09.06.2013 08:15 17,4 C 81 % 1007,7 hPa 0,0 mm O-SO 109 6,4 km/h (2 Bft)
09.06.2013 08:20 17,5 C 81 % 1007,7 hPa 0,0 mm O-SO 121 6,4 km/h (2 Bft)
09.06.2013 08:25 17,7 C 81 % 1007,6 hPa 0,0 mm O 91 8,0 km/h (2 Bft)
09.06.2013 08:30 17,7 C 80 % 1007,6 hPa 0,0 mm S-SO 159 6,4 km/h (2 Bft)
09.06.2013 08:35 17,8 C 81 % 1007,6 hPa 0,0 mm S-SO 147 8,0 km/h (2 Bft)
09.06.2013 08:40 17,9 C 78 % 1007,7 hPa 0,0 mm O-SO 115 4,8 km/h (1 Bft)
09.06.2013 08:45 18,2 C 78 % 1007,6 hPa 0,0 mm O-SO 121 4,8 km/h (1 Bft)
09.06.2013 08:50 18,3 C 80 % 1007,7 hPa 0,0 mm O-SO 119 4,8 km/h (1 Bft)
09.06.2013 08:55 18,4 C 77 % 1007,7 hPa 0,0 mm SO 136 4,8 km/h (1 Bft)
09.06.2013 09:00 18,5 C 77 % 1007,6 hPa 0,0 mm S-SO 151 4,8 km/h (1 Bft)
09.06.2013 09:05 18,6 C 80 % 1007,6 hPa 0,0 mm SO 130 3,2 km/h (1 Bft)
09.06.2013 09:10 18,9 C 76 % 1007,6 hPa 0,0 mm SO 130 3,2 km/h (1 Bft)
09.06.2013 09:15 19,0 C 74 % 1007,6 hPa 0,0 mm SO 130 3,2 km/h (1 Bft)
09.06.2013 09:20 19,1 C 79 % 1007,6 hPa 0,0 mm SO 130 1,6 km/h (1 Bft)
09.06.2013 09:25 19,4 C 74 % 1007,6 hPa 0,0 mm SO 130 1,6 km/h (1 Bft)
09.06.2013 09:30 19,3 C 76 % 1007,6 hPa 0,0 mm SO 130 1,6 km/h (1 Bft)
09.06.2013 09:35 19,4 C 72 % 1007,5 hPa 0,0 mm SO 130 0,0 km/h (0 Bft)
09.06.2013 09:40 19,6 C 71 % 1007,5 hPa 0,0 mm SO 130 1,6 km/h (1 Bft)
09.06.2013 09:45 19,9 C 72 % 1007,3 hPa 0,0 mm SO 130 1,6 km/h (1 Bft)
09.06.2013 09:50 20,2 C 73 % 1007,3 hPa 0,0 mm SO 130 3,2 km/h (1 Bft)
09.06.2013 09:55 20,6 C 69 % 1007,3 hPa 0,0 mm SO 130 3,2 km/h (1 Bft)
09.06.2013 10:00 20,7 C 69 % 1007,2 hPa 0,0 mm SO 130 3,2 km/h (1 Bft)
09.06.2013 10:05 21,2 C 70 % 1007,2 hPa 0,0 mm O-NO 76 3,2 km/h (1 Bft)
09.06.2013 10:10 21,4 C 65 % 1007,2 hPa 0,0 mm O-NO 76 3,2 km/h (1 Bft)
09.06.2013 10:15 21,6 C 65 % 1007,2 hPa 0,0 mm O-NO 69 4,8 km/h (1 Bft)
09.06.2013 10:20 22,1 C 63 % 1007,2 hPa 0,0 mm O-NO 69 4,8 km/h (1 Bft)
09.06.2013 10:25 22,2 C 61 % 1007,2 hPa 0,0 mm O-NO 65 4,8 km/h (1 Bft)
09.06.2013 10:30 22,6 C 60 % 1007,3 hPa 0,0 mm SO 128 3,2 km/h (1 Bft)
09.06.2013 10:35 22,3 C 53 % 1007,3 hPa 0,0 mm SO 132 4,8 km/h (1 Bft)
09.06.2013 10:40 22,4 C 54 % 1007,3 hPa 0,0 mm SO 132 1,6 km/h (1 Bft)
09.06.2013 10:45 22,5 C 61 % 1007,3 hPa 0,0 mm SO 132 3,2 km/h (1 Bft)
09.06.2013 10:50 22,6 C 57 % 1007,3 hPa 0,0 mm SO 132 1,6 km/h (1 Bft)
09.06.2013 10:55 22,7 C 56 % 1007,3 hPa 0,0 mm SO 132 1,6 km/h (1 Bft)
09.06.2013 11:00 22,8 C 55 % 1007,3 hPa 0,0 mm SO 132 3,2 km/h (1 Bft)
09.06.2013 11:05 23,1 C 53 % 1007,3 hPa 0,0 mm SO 132 3,2 km/h (1 Bft)
09.06.2013 11:10 23,5 C 50 % 1007,3 hPa 0,0 mm S-SO 150 3,2 km/h (1 Bft)
09.06.2013 11:15 23,7 C 54 % 1007,3 hPa 0,0 mm W-NW 286 4,8 km/h (1 Bft)
09.06.2013 11:20 25,2 C 46 % 1007,3 hPa 0,0 mm W-NW 284 9,7 km/h (2 Bft)
09.06.2013 11:25 25,8 C 43 % 1007,3 hPa 0,0 mm W 279 11,3 km/h (2 Bft)
09.06.2013 11:30 26,6 C 39 % 1007,4 hPa 0,0 mm W-SW 257 9,7 km/h (2 Bft)
09.06.2013 11:35 26,2 C 41 % 1007,3 hPa 0,0 mm W 269 14,5 km/h (3 Bft)
09.06.2013 11:40 26,4 C 41 % 1007,3 hPa 0,0 mm W-NW 292 14,5 km/h (3 Bft)
09.06.2013 11:45 26,9 C 42 % 1007,3 hPa 0,0 mm W 261 9,7 km/h (2 Bft)
09.06.2013 11:50 26,8 C 41 % 1007,3 hPa 0,0 mm W 262 14,5 km/h (3 Bft)
09.06.2013 11:55 26,2 C 46 % 1007,2 hPa 0,0 mm W 264 12,9 km/h (3 Bft)
09.06.2013 12:00 26,4 C 44 % 1007,2 hPa 0,0 mm W 260 14,5 km/h (3 Bft)
09.06.2013 12:05 27,0 C 43 % 1007,2 hPa 0,0 mm W 267 12,9 km/h (3 Bft)
09.06.2013 12:10 26,8 C 42 % 1007,1 hPa 0,0 mm W-SW 252 12,9 km/h (3 Bft)
09.06.2013 12:15 26,7 C 41 % 1007,1 hPa 0,0 mm W-SW 255 17,7 km/h (3 Bft)
09.06.2013 12:20 26,4 C 38 % 1007,1 hPa 0,0 mm W 259 16,1 km/h (3 Bft)
09.06.2013 12:25 26,3 C 40 % 1007,0 hPa 0,0 mm W 277 11,3 km/h (2 Bft)
09.06.2013 12:30 26,6 C 43 % 1006,9 hPa 0,0 mm W-SW 248 12,9 km/h (3 Bft)
09.06.2013 12:35 27,0 C 41 % 1006,8 hPa 0,0 mm W 262 8,0 km/h (2 Bft)
09.06.2013 12:40 27,1 C 42 % 1006,8 hPa 0,0 mm W 267 12,9 km/h (3 Bft)
09.06.2013 12:45 26,8 C 44 % 1006,7 hPa 0,0 mm W 259 14,5 km/h (3 Bft)
09.06.2013 12:50 26,7 C 42 % 1006,7 hPa 0,0 mm W 270 14,5 km/h (3 Bft)
09.06.2013 12:55 26,6 C 45 % 1006,6 hPa 0,0 mm W-SW 248 12,9 km/h (3 Bft)
09.06.2013 13:00 27,3 C 40 % 1006,6 hPa 0,0 mm NW 321 14,5 km/h (3 Bft)
09.06.2013 13:05 27,2 C 41 % 1006,5 hPa 0,0 mm W 271 11,3 km/h (2 Bft)
09.06.2013 13:10 27,4 C 43 % 1006,5 hPa 0,0 mm W 277 9,7 km/h (2 Bft)
09.06.2013 13:15 27,4 C 43 % 1006,5 hPa 0,0 mm W 263 14,5 km/h (3 Bft)
09.06.2013 13:20 27,3 C 44 % 1006,4 hPa 0,0 mm W-SW 251 14,5 km/h (3 Bft)
09.06.2013 13:25 27,4 C 43 % 1006,3 hPa 0,0 mm W 269 14,5 km/h (3 Bft)
09.06.2013 13:30 27,1 C 42 % 1006,2 hPa 0,0 mm W 279 12,9 km/h (3 Bft)
09.06.2013 13:35 26,9 C 45 % 1006,2 hPa 0,0 mm W-NW 287 11,3 km/h (2 Bft)
09.06.2013 13:40 26,9 C 45 % 1006,2 hPa 0,0 mm W-SW 251 14,5 km/h (3 Bft)
09.06.2013 13:45 27,1 C 44 % 1006,2 hPa 0,0 mm W 273 14,5 km/h (3 Bft)
09.06.2013 13:50 27,3 C 48 % 1006,2 hPa 0,0 mm W-SW 256 17,7 km/h (3 Bft)
09.06.2013 13:55 27,6 C 44 % 1006,1 hPa 0,0 mm W 281 14,5 km/h (3 Bft)
09.06.2013 14:00 27,9 C 42 % 1006,1 hPa 0,0 mm W 272 17,7 km/h (3 Bft)
09.06.2013 14:05 27,7 C 43 % 1006,1 hPa 0,0 mm W 271 17,7 km/h (3 Bft)
09.06.2013 14:10 26,8 C 45 % 1006,0 hPa 0,0 mm W 259 14,5 km/h (3 Bft)
09.06.2013 14:15 26,3 C 46 % 1006,0 hPa 0,0 mm W 264 14,5 km/h (3 Bft)
09.06.2013 14:20 25,8 C 45 % 1005,9 hPa 0,0 mm W-NW 283 12,9 km/h (3 Bft)
09.06.2013 14:25 26,2 C 48 % 1005,9 hPa 0,0 mm W-SW 254 14,5 km/h (3 Bft)
09.06.2013 14:30 26,2 C 47 % 1005,8 hPa 0,0 mm W 271 16,1 km/h (3 Bft)
09.06.2013 14:35 26,7 C 48 % 1005,8 hPa 0,0 mm W-SW 245 11,3 km/h (2 Bft)
09.06.2013 14:40 26,8 C 48 % 1005,8 hPa 0,0 mm N 355 16,1 km/h (3 Bft)
09.06.2013 14:45 26,8 C 47 % 1005,7 hPa 0,0 mm NO 44 11,3 km/h (2 Bft)
09.06.2013 14:50 26,4 C 47 % 1005,7 hPa 0,0 mm W-SW 244 14,5 km/h (3 Bft)
09.06.2013 14:55 26,1 C 50 % 1005,6 hPa 0,0 mm W-NW 288 19,3 km/h (3 Bft)
09.06.2013 15:00 26,5 C 47 % 1005,5 hPa 0,0 mm W-NW 284 12,9 km/h (3 Bft)
09.06.2013 15:05 26,5 C 49 % 1005,4 hPa 0,0 mm W-SW 249 11,3 km/h (2 Bft)
09.06.2013 15:10 26,8 C 49 % 1005,4 hPa 0,0 mm W 260 12,9 km/h (3 Bft)
09.06.2013 15:15 26,6 C 47 % 1005,3 hPa 0,0 mm W 271 11,3 km/h (2 Bft)
09.06.2013 15:20 26,3 C 48 % 1005,3 hPa 0,0 mm W 263 11,3 km/h (2 Bft)
09.06.2013 15:25 26,6 C 46 % 1005,2 hPa 0,0 mm SW 229 6,4 km/h (2 Bft)
09.06.2013 15:30 26,2 C 47 % 1005,2 hPa 0,0 mm N-NO 28 11,3 km/h (2 Bft)
09.06.2013 15:35 26,7 C 47 % 1005,0 hPa 0,0 mm W 275 9,7 km/h (2 Bft)
09.06.2013 15:40 27,1 C 46 % 1005,0 hPa 0,0 mm W 269 12,9 km/h (3 Bft)
09.06.2013 15:45 27,3 C 43 % 1004,9 hPa 0,0 mm W 263 14,5 km/h (3 Bft)
09.06.2013 15:50 27,0 C 45 % 1004,8 hPa 0,0 mm W-NW 289 9,7 km/h (2 Bft)
09.06.2013 15:55 27,1 C 47 % 1004,8 hPa 0,0 mm W 279 14,5 km/h (3 Bft)
09.06.2013 16:00 27,2 C 48 % 1004,7 hPa 0,0 mm W 278 16,1 km/h (3 Bft)
09.06.2013 16:05 27,1 C 45 % 1004,7 hPa 0,0 mm W 262 16,1 km/h (3 Bft)
09.06.2013 16:10 26,7 C 45 % 1004,6 hPa 0,0 mm W 269 16,1 km/h (3 Bft)
09.06.2013 16:15 26,6 C 48 % 1004,6 hPa 0,0 mm W-SW 258 17,7 km/h (3 Bft)
09.06.2013 16:20 26,5 C 48 % 1004,5 hPa 0,0 mm W 269 20,9 km/h (4 Bft)
09.06.2013 16:25 26,5 C 50 % 1004,4 hPa 0,0 mm W 280 11,3 km/h (2 Bft)
09.06.2013 16:30 26,5 C 47 % 1004,4 hPa 0,0 mm W-SW 254 11,3 km/h (2 Bft)
09.06.2013 16:35 25,7 C 51 % 1004,3 hPa 0,0 mm W-NW 286 14,5 km/h (3 Bft)
09.06.2013 16:40 26,1 C 50 % 1004,2 hPa 0,0 mm W 271 12,9 km/h (3 Bft)
09.06.2013 16:45 26,7 C 46 % 1004,2 hPa 0,0 mm W 269 14,5 km/h (3 Bft)
09.06.2013 16:50 26,6 C 47 % 1004,2 hPa 0,0 mm W-NW 291 12,9 km/h (3 Bft)
09.06.2013 16:55 25,9 C 50 % 1004,1 hPa 0,0 mm W 265 9,7 km/h (2 Bft)
09.06.2013 17:00 25,9 C 47 % 1004,0 hPa 0,0 mm W 264 9,7 km/h (2 Bft)
09.06.2013 17:05 25,5 C 46 % 1003,9 hPa 0,0 mm W 259 9,7 km/h (2 Bft)
09.06.2013 17:10 24,9 C 50 % 1003,9 hPa 0,0 mm W 261 11,3 km/h (2 Bft)
09.06.2013 17:15 24,2 C 61 % 1003,9 hPa 0,0 mm W 279 9,7 km/h (2 Bft)
09.06.2013 17:20 23,8 C 62 % 1004,0 hPa 0,2 mm W-SW 252 6,4 km/h (2 Bft)
09.06.2013 17:25 22,8 C 68 % 1004,1 hPa 0,0 mm S 172 4,8 km/h (1 Bft)
09.06.2013 17:30 21,8 C 70 % 1004,0 hPa 0,0 mm S 184 4,8 km/h (1 Bft)
09.06.2013 17:35 21,5 C 73 % 1004,0 hPa 0,0 mm S-SO 147 4,8 km/h (1 Bft)
09.06.2013 17:40 21,4 C 72 % 1003,9 hPa 0,0 mm S-SO 159 4,8 km/h (1 Bft)
09.06.2013 17:45 21,6 C 69 % 1003,8 hPa 0,0 mm S-SO 159 3,2 km/h (1 Bft)
09.06.2013 17:50 21,7 C 70 % 1003,7 hPa 0,0 mm S-SO 159 1,6 km/h (1 Bft)
09.06.2013 17:55 21,6 C 73 % 1003,7 hPa 0,0 mm S-SO 159 1,6 km/h (1 Bft)
09.06.2013 18:00 21,4 C 77 % 1003,7 hPa 0,0 mm S-SO 159 0,0 km/h (0 Bft)
09.06.2013 18:05 21,3 C 77 % 1003,6 hPa 0,0 mm S-SO 159 1,6 km/h (1 Bft)
09.06.2013 18:10 21,1 C 77 % 1003,5 hPa 0,0 mm S-SO 161 3,2 km/h (1 Bft)
09.06.2013 18:15 21,1 C 77 % 1003,5 hPa 0,0 mm W 261 3,2 km/h (1 Bft)
09.06.2013 18:20 21,4 C 77 % 1003,3 hPa 0,0 mm W 261 1,6 km/h (1 Bft)
09.06.2013 18:25 21,6 C 73 % 1003,4 hPa 0,0 mm W 280 6,4 km/h (2 Bft)
09.06.2013 18:30 21,6 C 74 % 1003,5 hPa 0,0 mm W 280 3,2 km/h (1 Bft)
09.06.2013 18:35 21,4 C 76 % 1003,6 hPa 0,0 mm W 280 1,6 km/h (1 Bft)
09.06.2013 18:40 21,1 C 76 % 1003,9 hPa 0,0 mm S 175 16,1 km/h (3 Bft)
09.06.2013 18:45 20,7 C 76 % 1004,3 hPa 0,0 mm W-SW 254 20,9 km/h (4 Bft)
09.06.2013 18:50 20,7 C 74 % 1004,5 hPa 0,0 mm W-NW 284 12,9 km/h (3 Bft)
09.06.2013 18:55 20,7 C 73 % 1004,6 hPa 0,0 mm W-SW 253 14,5 km/h (3 Bft)
09.06.2013 19:00 20,4 C 73 % 1004,7 hPa 0,0 mm W-SW 252 14,5 km/h (3 Bft)
09.06.2013 19:05 20,0 C 74 % 1005,2 hPa 0,0 mm W-SW 246 14,5 km/h (3 Bft)
09.06.2013 19:10 19,5 C 76 % 1005,5 hPa 0,0 mm W-NW 290 24,1 km/h (4 Bft)
09.06.2013 19:15 18,9 C 76 % 1005,7 hPa 0,0 mm W 261 20,9 km/h (4 Bft)
09.06.2013 19:20 18,6 C 76 % 1005,6 hPa 0,0 mm W 259 19,3 km/h (3 Bft)
09.06.2013 19:25 18,3 C 78 % 1005,7 hPa 0,0 mm W-SW 257 16,1 km/h (3 Bft)
09.06.2013 19:30 18,1 C 79 % 1005,8 hPa 0,0 mm W-SW 256 16,1 km/h (3 Bft)
09.06.2013 19:35 17,9 C 79 % 1005,7 hPa 0,0 mm W 261 16,1 km/h (3 Bft)
09.06.2013 19:40 17,8 C 79 % 1005,6 hPa 0,0 mm W 266 24,1 km/h (4 Bft)
09.06.2013 19:45 17,6 C 80 % 1005,8 hPa 0,0 mm W 263 19,3 km/h (3 Bft)
09.06.2013 19:50 17,4 C 80 % 1005,9 hPa 0,0 mm W-NW 286 20,9 km/h (4 Bft)
09.06.2013 19:55 17,3 C 81 % 1006,1 hPa 0,0 mm W 271 14,5 km/h (3 Bft)
09.06.2013 20:00 17,3 C 81 % 1006,2 hPa 0,0 mm W-NW 291 14,5 km/h (3 Bft)
09.06.2013 20:05 17,3 C 81 % 1006,2 hPa 0,0 mm W 265 16,1 km/h (3 Bft)
09.06.2013 20:10 17,1 C 82 % 1006,3 hPa 0,0 mm W 262 17,7 km/h (3 Bft)
09.06.2013 20:15 17,0 C 82 % 1006,5 hPa 0,0 mm W-NW 282 12,9 km/h (3 Bft)
09.06.2013 20:20 17,0 C 82 % 1006,5 hPa 0,0 mm W-NW 296 12,9 km/h (3 Bft)
09.06.2013 20:25 16,9 C 83 % 1006,5 hPa 0,0 mm W 273 11,3 km/h (2 Bft)
09.06.2013 20:30 16,9 C 83 % 1006,4 hPa 0,0 mm W 259 11,3 km/h (2 Bft)
09.06.2013 20:35 16,8 C 83 % 1006,5 hPa 0,0 mm W-SW 250 9,7 km/h (2 Bft)
09.06.2013 20:40 16,8 C 83 % 1006,6 hPa 0,0 mm W 265 8,0 km/h (2 Bft)
09.06.2013 20:45 16,8 C 84 % 1006,6 hPa 0,0 mm W 267 6,4 km/h (2 Bft)
09.06.2013 20:50 16,8 C 84 % 1006,7 hPa 0,0 mm W 267 4,8 km/h (1 Bft)
09.06.2013 20:55 16,7 C 84 % 1006,8 hPa 0,0 mm W 271 8,0 km/h (2 Bft)
09.06.2013 21:00 16,7 C 84 % 1006,8 hPa 0,0 mm NO 43 4,8 km/h (1 Bft)
09.06.2013 21:05 16,6 C 85 % 1006,8 hPa 0,0 mm O-NO 59 4,8 km/h (1 Bft)
09.06.2013 21:10 16,3 C 86 % 1006,9 hPa 0,0 mm O-NO 59 0,0 km/h (0 Bft)
09.06.2013 21:15 16,4 C 87 % 1006,8 hPa 0,0 mm W-NW 298 3,2 km/h (1 Bft)
09.06.2013 21:20 16,4 C 87 % 1006,7 hPa 0,0 mm W 281 3,2 km/h (1 Bft)
09.06.2013 21:25 16,5 C 86 % 1006,8 hPa 0,0 mm W 279 3,2 km/h (1 Bft)
09.06.2013 21:30 16,4 C 86 % 1006,9 hPa 0,0 mm W 280 3,2 km/h (1 Bft)
09.06.2013 21:35 16,3 C 87 % 1006,8 hPa 0,0 mm W 280 0,0 km/h (0 Bft)
09.06.2013 21:40 16,1 C 87 % 1006,8 hPa 0,0 mm W 280 1,6 km/h (1 Bft)
09.06.2013 21:45 16,0 C 88 % 1006,7 hPa 0,0 mm W 280 0,0 km/h (0 Bft)
09.06.2013 21:50 15,8 C 89 % 1006,7 hPa 0,0 mm W 280 0,0 km/h (0 Bft)
09.06.2013 21:55 15,6 C 89 % 1006,6 hPa 0,0 mm W-SW 245 3,2 km/h (1 Bft)
09.06.2013 22:00 15,4 C 89 % 1006,7 hPa 0,0 mm SW 223 3,2 km/h (1 Bft)
09.06.2013 22:05 15,4 C 90 % 1006,5 hPa 0,0 mm SW 223 0,0 km/h (0 Bft)
09.06.2013 22:10 15,3 C 90 % 1006,6 hPa 0,0 mm SW 223 0,0 km/h (0 Bft)
09.06.2013 22:15 15,2 C 91 % 1006,5 hPa 0,0 mm O 86 3,2 km/h (1 Bft)
09.06.2013 22:20 15,1 C 91 % 1006,5 hPa 0,0 mm O-NO 64 4,8 km/h (1 Bft)
09.06.2013 22:25 15,1 C 91 % 1006,4 hPa 0,0 mm O-NO 63 6,4 km/h (2 Bft)
09.06.2013 22:30 15,1 C 92 % 1006,4 hPa 0,0 mm SO 136 3,2 km/h (1 Bft)
09.06.2013 22:35 15,1 C 92 % 1006,5 hPa 0,0 mm O-SO 121 4,8 km/h (1 Bft)
09.06.2013 22:40 14,9 C 92 % 1006,4 hPa 0,0 mm SO 140 6,4 km/h (2 Bft)
09.06.2013 22:45 14,9 C 92 % 1006,5 hPa 0,0 mm SO 142 3,2 km/h (1 Bft)
09.06.2013 22:50 14,8 C 92 % 1006,6 hPa 0,0 mm SO 142 3,2 km/h (1 Bft)
09.06.2013 22:55 14,8 C 93 % 1006,6 hPa 0,0 mm SO 142 1,6 km/h (1 Bft)
09.06.2013 23:00 14,8 C 93 % 1006,5 hPa 0,0 mm SO 142 0,0 km/h (0 Bft)
09.06.2013 23:05 14,8 C 93 % 1006,5 hPa 0,0 mm SO 137 1,6 km/h (1 Bft)
09.06.2013 23:10 14,8 C 93 % 1006,5 hPa 0,0 mm S-SO 147 3,2 km/h (1 Bft)
09.06.2013 23:15 14,8 C 93 % 1006,5 hPa 0,0 mm S-SO 147 1,6 km/h (1 Bft)
09.06.2013 23:20 14,8 C 93 % 1006,4 hPa 0,0 mm S-SO 150 1,6 km/h (1 Bft)
09.06.2013 23:25 15,0 C 93 % 1006,5 hPa 0,0 mm S-SO 150 1,6 km/h (1 Bft)
09.06.2013 23:30 15,0 C 92 % 1006,4 hPa 0,0 mm S-SO 150 1,6 km/h (1 Bft)
09.06.2013 23:35 15,0 C 92 % 1006,2 hPa 0,0 mm S-SO 150 0,0 km/h (0 Bft)
09.06.2013 23:40 15,0 C 92 % 1006,1 hPa 0,0 mm S-SO 150 1,6 km/h (1 Bft)
09.06.2013 23:45 15,1 C 92 % 1006,1 hPa 0,0 mm S-SO 150 0,0 km/h (0 Bft)
09.06.2013 23:50 15,0 C 92 % 1006,1 hPa 0,2 mm SW 215 1,6 km/h (1 Bft)
09.06.2013 23:55 15,0 C 92 % 1006,1 hPa 0,0 mm W-SW 252 3,2 km/h (1 Bft)
_ Min-Zeit 05:30 12:20 18:20 - - - 00:00
Minimum _ 11,1 C 38 % 1003,3 hPa - - - 0,0 km/h (0 Bft)
_ Max-Zeit 14:05 06:00 00:00 17:20 - - 19:10
Maximum _ 28,1 C 93 % 1010,2 hPa 0,2 mm - - 24,1 km/h
W-NW (4 Bft)
Durchschnitt _ 18,8 C 74 % 1007,0 hPa #0,4 mm W - 5,8 km/h (2 Bft)